STARLINK-4768, 53806

Orbit data source: Space-Track

STARLINK-4768, 53806 is a payload satellite owned by SpaceX/Seattle (US) in LEO that was launched on Sun, 11 Sep 2022 UTC via an FALCON 9 launch vehicle from the Air Force Eastern Test Range (AFETR). Payload-class satellites include a variety of spacecraft equipped with specific instruments for various scientific and technological missions. These include communications satellites like Starlink; space stations such as the ISS; scientific satellites like the Hubble; Earth observation satellites from companies like Planet Labs, Umbra, and HawkEye 360; GPS; miniature CubeSats for education and research; and military/defense satellites.

Loading next visibility...
Identifier
53806, 2022-111AK
Orbit
LEO
Country
Flag of USUS
Related business
Manufacturer
SpaceX/Seattle
Mission
Operational Commercial Communications
Bus & Motor
STARLINK, Unknown motor
Mass
305 kg wet, ~290 kg dry
Launch date (UTC)
2022-09-11 (3 years ago)
Launch vehicle
FALCON 9
Launch site
Air Force Eastern Test Range (AFETR)
Object type
Payload
Rocket body
Debris
Shape & HBR
Box + 1 Pan, 10.1 m
Radar Cross Section
13.562 m², Large (>1 m²)

Expand to show TLE details & history
Last TLE update: 16 hours ago

TLE from 16 hours ago
0 STARLINK-4768
1 53806U 22111AK  25300.24738220  .00001534  00000-0  11445-3 0  9998
2 53806  53.2156 128.0085 0001326  90.0199 270.0946 15.08838879173882
Epoch: 2025-10-27T05:56Z
TLE epoch observation values (Epoch: 2025-10-27T05:56:13.822Z)
Latitude
0.00007°
Longitude
3.099°
Altitude
540.643 km
Speed
7.593 km/s
True Right ascension
08h 32m 02s
True Declination
0° 00' 00"
Sunlit
Object was in daylight at epoch
Visualization orbit readout
Latitude
Unknown
Longitude
Unknown
Altitude
Unknown
Speed
Unknown
Apparent Right ascension
Unknown
Apparent Declination
Unknown
Sunlit
N/A
Visualization observer readout
Local Sidereal Time
17:09:10
Azimuth
Unknown
Elevation
Unknown
Doppler factor
Unknown
Orbital elements
Apogee altitude
540.909 km
Perigee altitude
539.075 km
Semi-major axis
6,918.129 km
Eccentricity
0.00013
Inclination
53.2156°
RAAN
128.0085°
Arg. of periapsis
90.0199°
True anomaly
270.07941°
Mean anomaly
270.0946°
Eccentric anomaly
270.087°
Mean motion
3.7719 °/min
Orbital period
95.44 mins
BSTAR
0.00011445
Loading maneuver chart data...
Computing Atmospheric mass density...
Loading historical data...
Loading historical data...
Loading historical data...
Loading historical data...
Loading historical data...
Loading historical data...
Loading historical data...

Documentation

Showing up to 5 results
|